[[{"header":{"parameterUnit":"m.s-1","parameterCategory":1,"la1":30.2991,"la2":30.254,"lo1":-89.0895,"lo2":-89.0444,"dy":0.0017,"dx":0.0017,"nx":28,"ny":28,"refTime":"2026-03-05T03:00:00:Z","depth":0,"parameterNumber":2,"parameterNumberName":"U-component_of_WINDS"},"data":[0,0,0,0,0,0,0,0,0,0,0,0,0,0,0,0,0,0,0,0,0,0,0,0,0,0,0,0,0,0,0,0,0,0,0,0,0,0,0,0,0,0,0,0,0,0,0,0,0,0,0,0,0,0,0,0,0,0,-4.4631,-4.4631,0,-4.4616,-4.4616,-4.4615,-4.4524,-4.4522,-4.4519,-4.4517,-4.4501,-4.4503,-4.4504,0,0,0,0,0,0,0,0,0,0,0,0,0,-4.4584,-4.4585,-4.4631,-4.4631,-4.4631,-4.4616,-4.4616,-4.4615,-4.4524,-4.4522,-4.4519,-4.4516,-4.4501,-4.4503,-4.4505,0,0,0,0,0,0,0,0,0,0,0,0,0,-4.459,-4.4586,-4.4631,-4.4584,-4.4579,-4.4616,-4.4616,-4.4615,-4.4525,-4.4521,-4.4518,-4.4515,-4.45,-4.4502,-4.4505,-4.4586,0,0,-4.4512,-4.4513,0,0,0,0,0,0,0,0,-4.459,-4.4592,-4.4591,-4.4587,-4.4582,-4.4568,-4.4593,-4.4605,-4.4526,-4.4546,-4.4517,-4.4514,-4.4526,-4.4526,-4.4531,-4.4585,-4.4585,-4.4513,-4.4514,-4.4515,-4.4516,0,0,0,0,0,0,0,-4.459,-4.4592,-4.4625,-4.4591,-4.4586,-4.4564,-4.4561,-4.4595,-4.4555,-4.4544,-4.4537,-4.4536,-4.4523,-4.4529,-4.453,-4.4584,-4.4512,-4.4515,-4.4516,-4.4517,-4.4706,-4.4709,0,0,0,0,0,0,-4.4596,-4.4592,-4.4626,-4.4625,-4.4578,-4.4567,-4.4564,-4.4576,-4.4554,-4.4547,-4.4539,-4.4532,-4.4526,-4.4527,-4.4529,-4.4622,-4.4515,-4.4517,-4.4519,-4.4702,-4.4707,-4.471,0,0,0,0,0,0,-4.4595,-4.46,-4.4626,-4.4607,-4.4608,-4.4571,-4.4586,-4.4578,-4.4583,-4.4551,-4.4543,-4.4552,-4.4523,-4.4525,-4.4573,-4.462,-4.4518,-4.4521,-4.4698,-4.4704,-4.4708,-4.4809,0,0,0,0,0,0,-4.4594,-4.46,-4.463,-4.4608,-4.461,-4.467,-4.4589,-4.458,-4.4587,-4.4578,-4.456,-4.4554,-4.4521,-4.457,-4.4575,-4.4621,-4.4523,-4.4693,-4.47,-4.4707,-4.4801,-4.4817,-4.4831,0,0,0,0,0,-4.4593,-4.4658,-4.4632,-4.4636,-4.4646,-4.4673,-4.4674,-4.4634,-4.4591,-4.4621,-4.4601,-4.4555,-4.4615,-4.4575,-4.4581,-4.4629,-4.469,-4.4698,-4.4706,-4.4795,-4.4814,-4.4831,0,0,0,0,0,0,-4.4685,-4.4654,-4.4624,-4.4685,-4.4683,-4.4658,-4.4693,-4.4656,-4.4665,-4.4656,-4.4606,-4.4603,-4.4658,-4.4648,-4.4605,-4.4707,-4.4645,-4.4654,-4.471,-4.4728,-4.4743,-4.4743,-4.4525,0,0,0,0,0,-4.4713,-4.4737,-4.4709,-4.4765,-4.4766,-4.4731,-4.4741,-4.4711,-4.4706,-4.4704,-4.4687,-4.4685,-4.4703,-4.4715,-4.473,-4.4801,-4.4796,-4.4837,-4.4852,-4.4864,-4.4872,-4.4909,-4.4926,-4.4737,-4.4737,-4.4736,0,0,-4.477,-4.4756,-4.4774,-4.4784,-4.4778,-4.4805,-4.473,-4.4761,-4.478,-4.4709,-4.4752,-4.474,-4.4734,-4.4794,-4.4819,-4.4787,-4.4924,-4.4874,-4.4884,-4.4885,-4.4919,-4.4937,-4.4953,-4.4742,-4.4741,-4.474,0,0,-4.4887,-4.4879,-4.4925,-4.4922,-4.4915,-4.4892,-4.4903,-4.4885,-4.4874,-4.4917,-4.4865,-4.4888,-4.492,-4.4918,-4.4921,-4.5041,-4.4999,-4.5048,-4.5123,-4.516,-4.5175,-4.5188,-4.523,-4.5246,-4.5056,-4.5056,-4.5057,0,-4.4958,-4.4995,-4.4954,-4.4988,-4.4994,-4.4933,-4.4979,-4.4978,-4.4977,-4.4982,-4.4947,-4.4988,-4.4979,-4.5037,-4.5067,-4.5072,-4.5083,-4.5048,-4.5176,-4.5189,-4.52,-4.524,-4.5256,-4.5062,-4.5062,-4.5061,-4.506,0,-4.5083,-4.511,-4.5149,-4.5149,-4.516,-4.5201,-4.5166,-4.5182,-4.5152,-4.5133,-4.5179,-4.5167,-4.5179,-4.5191,-4.5162,-4.5246,-4.5226,-4.5185,-4.5121,-4.5225,-4.5261,-4.5276,-4.5071,-4.5069,-4.5067,-4.5065,0,0,-4.5253,-4.5233,-4.5248,-4.5248,-4.5238,-4.5258,-4.5297,-4.5309,-4.5323,-4.5326,-4.5357,-4.5387,-4.5349,-4.5353,-4.5324,-4.5357,-4.5452,-4.5311,-4.531,-4.5336,-4.5543,-4.5573,-4.5591,-4.5426,-4.5428,-4.543,-4.5543,0,-4.5364,-4.5428,-4.5394,-4.5463,-4.5488,-4.5432,-4.5466,-4.5464,-4.5448,-4.5467,-4.5449,-4.5471,-4.542,-4.5422,-4.5452,-4.5434,-4.5492,-4.5426,-4.5453,-4.5454,-4.5454,-4.561,-4.5641,-4.5748,-4.5557,-4.556,-4.5561,0,-4.55,-4.551,-4.5582,-4.5568,-4.5577,-4.5608,-4.5617,-4.5637,-4.5634,-4.562,-4.5626,-4.559,-4.5628,-4.5568,-4.5619,-4.5575,-4.5584,-4.5578,-4.5581,-4.558,-4.5512,-4.5611,-4.5781,-4.5796,-4.5583,-4.5582,-4.558,0,-4.5616,-4.5647,-4.5694,-4.5696,-4.5682,-4.5705,-4.57,-4.5694,-4.5704,-4.5713,-4.5719,-4.5732,-4.5739,-4.5751,-4.5719,-4.5678,-4.5775,-4.5712,-4.5764,-4.5765,-4.5784,-4.5782,-4.5955,-4.5795,-4.5794,-4.5794,-4.5794,0,-4.5742,-4.5787,-4.5745,-4.5774,-4.5824,-4.5786,-4.5837,-4.5826,-4.5822,-4.5848,-4.5801,-4.5826,-4.5785,-4.5806,-4.5782,-4.5828,-4.5832,-4.5822,-4.5814,-4.5825,-4.5826,-4.5828,-4.5819,-4.5798,-4.5797,-4.5797,-4.5796,0,-4.5877,-4.5851,-4.5899,-4.5883,-4.588,-4.5918,-4.5904,-4.593,-4.5913,-4.5946,-4.5952,-4.5924,-4.5947,-4.5918,-4.5939,-4.5923,-4.5985,-4.5968,-4.5986,-4.598,-4.6033,-4.6028,-4.6211,-4.6233,-4.6061,-4.6062,-4.6064,0,-4.5958,-4.5992,-4.598,-4.5995,-4.5993,-4.6017,-4.6028,-4.5992,-4.6005,-4.6006,-4.6032,-4.6052,-4.6065,-4.6105,-4.6087,-4.6103,-4.6084,-4.6148,-4.6086,-4.6095,-4.6083,-4.608,-4.6083,-4.6159,-4.6161,-4.6163,-4.6164,0,-4.6103,-4.6089,-4.6106,-4.612,-4.6135,-4.6144,-4.6149,-4.6164,-4.6127,-4.6144,-4.6168,-4.6178,-4.62,-4.622,-4.6232,-4.6227,-4.619,-4.6185,-4.6197,-4.6206,-4.6215,-4.6209,-4.6018,-4.618,-4.6178,-4.6177,-4.6176,-4.6176,-4.6212,-4.624,-4.6237,-4.6258,-4.6259,-4.6266,-4.629,-4.6277,-4.6296,-4.6311,-4.629,-4.6319,-4.6317,-4.6329,-4.6329,-4.6352,-4.6324,-4.6343,-4.6347,-4.6351,-4.6359,-4.6214,-4.6354,-4.6353,-4.6353,-4.6353,-4.6352,0,-4.6353,-4.6349,-4.637,-4.6379,-4.6397,-4.6363,-4.6368,-4.6384,-4.6411,-4.6413,-4.6428,-4.6456,-4.6476,-4.6461,-4.6477,-4.6499,-4.6482,-4.6504,-4.65,-4.65,-4.6383,-4.637,-4.6517,-4.6517,-4.6517,-4.6517,-4.6517,-4.6517,-4.6428,-4.6474,-4.6461,-4.6507,-4.6503,-4.6532,-4.6538,-4.6544,-4.6545,-4.6579,-4.6596,-4.6586,-4.6581,-4.6598,-4.6615,-4.661,-4.6618,-4.6645,-4.6634,-4.6525,-4.6508,-4.6493,-4.648,-4.6648,-4.6648,-4.6749,-4.675,-4.6751]},{"header":{"parameterUnit":"m.s-1","parameterCategory":1,"la1":30.2991,"la2":30.254,"lo1":-89.0895,"lo2":-89.0444,"dy":0.0017,"dx":0.0017,"nx":28,"ny":28,"refTime":"2026-03-05T03:00:00:Z","depth":0,"parameterNumber":3,"parameterNumberName":"V-component_of_WINDS"},"data":[0,0,0,0,0,0,0,0,0,0,0,0,0,0,0,0,0,0,0,0,0,0,0,0,0,0,0,0,0,0,0,0,0,0,0,0,0,0,0,0,0,0,0,0,0,0,0,0,0,0,0,0,0,0,0,0,0,0,1.5454,1.5454,0,1.5467,1.5467,1.5468,1.5484,1.5484,1.5485,1.5485,1.5496,1.5496,1.5496,0,0,0,0,0,0,0,0,0,0,0,0,0,1.5443,1.5443,1.5454,1.5454,1.5454,1.5467,1.5467,1.5468,1.5484,1.5484,1.5485,1.5485,1.5496,1.5496,1.5496,0,0,0,0,0,0,0,0,0,0,0,0,0,1.5451,1.5443,1.5454,1.5464,1.5465,1.5467,1.5467,1.5468,1.5484,1.5484,1.5485,1.5485,1.5496,1.5496,1.5496,1.5488,0,0,1.5496,1.5496,0,0,0,0,0,0,0,0,1.545,1.5451,1.5462,1.5463,1.5465,1.5475,1.5467,1.5474,1.5484,1.5477,1.5485,1.5485,1.5488,1.5489,1.549,1.5489,1.5489,1.5496,1.5496,1.5496,1.5496,0,0,0,0,0,0,0,1.545,1.5451,1.5459,1.5463,1.5464,1.5468,1.547,1.5469,1.548,1.5477,1.5479,1.548,1.5489,1.549,1.5491,1.5489,1.5496,1.5496,1.5496,1.5496,1.5485,1.5485,0,0,0,0,0,0,1.5448,1.545,1.5459,1.546,1.5458,1.5468,1.547,1.5471,1.548,1.5482,1.548,1.5481,1.549,1.5491,1.5491,1.5485,1.5496,1.5496,1.5496,1.5486,1.5485,1.5485,0,0,0,0,0,0,1.5448,1.5448,1.5458,1.5455,1.5457,1.5468,1.5469,1.5471,1.5472,1.5482,1.5484,1.5479,1.549,1.5491,1.549,1.5485,1.5496,1.5496,1.5486,1.5485,1.5485,1.5471,0,0,0,0,0,0,1.5447,1.5448,1.5445,1.5455,1.5457,1.5456,1.5469,1.5471,1.5473,1.5474,1.5482,1.5483,1.5491,1.549,1.549,1.5486,1.5496,1.5486,1.5486,1.5485,1.5472,1.547,1.5468,0,0,0,0,0,1.5447,1.5439,1.5445,1.5446,1.5453,1.5456,1.5457,1.5466,1.5472,1.547,1.5476,1.5483,1.5486,1.5489,1.549,1.5485,1.5487,1.5486,1.5485,1.5472,1.547,1.5468,0,0,0,0,0,0,1.5426,1.5441,1.5447,1.5442,1.5448,1.5459,1.5455,1.5463,1.5466,1.5467,1.5478,1.548,1.5478,1.5481,1.5485,1.548,1.5488,1.5487,1.5478,1.5476,1.5474,1.5473,1.5496,0,0,0,0,0,1.5422,1.5423,1.5435,1.543,1.5433,1.5444,1.5445,1.5453,1.5458,1.546,1.5467,1.5472,1.5474,1.5475,1.5477,1.5473,1.5475,1.547,1.5469,1.5467,1.5466,1.5467,1.5465,1.5482,1.5482,1.5482,0,0,1.5411,1.5419,1.5419,1.5427,1.5432,1.5434,1.5446,1.5446,1.5447,1.546,1.546,1.5465,1.5471,1.5469,1.5468,1.5472,1.5463,1.5466,1.5465,1.5465,1.5466,1.5464,1.5463,1.5482,1.5482,1.5482,0,0,1.5394,1.5399,1.5397,1.5403,1.5412,1.542,1.542,1.543,1.5434,1.5435,1.5445,1.5447,1.545,1.5455,1.5458,1.5447,1.5454,1.5447,1.5438,1.5439,1.5437,1.5436,1.5433,1.5432,1.5447,1.5447,1.5446,0,1.538,1.5383,1.5395,1.5396,1.54,1.5414,1.5412,1.5417,1.5425,1.5428,1.5432,1.5439,1.5444,1.5444,1.5442,1.5443,1.5444,1.5446,1.5437,1.5436,1.5435,1.5432,1.5431,1.5446,1.5446,1.5446,1.5446,0,1.5366,1.5368,1.5366,1.5376,1.5379,1.5379,1.5391,1.5394,1.5401,1.5409,1.5411,1.5418,1.5423,1.5424,1.543,1.5426,1.5429,1.5435,1.5442,1.5432,1.543,1.5429,1.5445,1.5445,1.5445,1.5445,0,0,1.5334,1.5354,1.5352,1.5359,1.5371,1.5373,1.5374,1.5381,1.5384,1.539,1.5392,1.5396,1.5403,1.5406,1.5414,1.5414,1.5407,1.5421,1.5421,1.5419,1.5405,1.5401,1.5399,1.5412,1.5412,1.5412,1.5405,0,1.5319,1.5323,1.5335,1.5335,1.5339,1.5354,1.5355,1.5363,1.5371,1.5375,1.5384,1.5388,1.5396,1.5398,1.5399,1.5408,1.5404,1.5408,1.5414,1.5414,1.5413,1.5398,1.5392,1.5385,1.5404,1.5404,1.5404,0,1.5302,1.531,1.531,1.5326,1.5328,1.5329,1.5338,1.5341,1.5352,1.5358,1.5364,1.5373,1.5376,1.5384,1.5389,1.5391,1.5395,1.54,1.54,1.54,1.5408,1.5399,1.5383,1.5382,1.5402,1.5402,1.5403,0,1.528,1.529,1.5293,1.5298,1.5315,1.5316,1.5323,1.5334,1.5339,1.5346,1.535,1.5357,1.5361,1.5367,1.5379,1.5383,1.5383,1.5391,1.5389,1.5389,1.5388,1.5388,1.5372,1.5389,1.5389,1.5389,1.5389,0,1.5262,1.5263,1.5284,1.5286,1.5287,1.5302,1.5303,1.5312,1.5322,1.5326,1.5339,1.5342,1.5358,1.5363,1.5372,1.5376,1.5377,1.5383,1.5385,1.5382,1.5381,1.5384,1.5385,1.5389,1.5389,1.5389,1.5389,0,1.5238,1.5252,1.5256,1.5274,1.5278,1.5279,1.5294,1.5296,1.5307,1.5312,1.5314,1.5329,1.5337,1.5349,1.5359,1.5366,1.5368,1.5372,1.5365,1.5367,1.5364,1.5364,1.535,1.535,1.5366,1.5366,1.5366,0,1.5226,1.5227,1.5245,1.525,1.5257,1.5264,1.5269,1.5285,1.529,1.5304,1.5305,1.5314,1.5322,1.5333,1.5345,1.5354,1.5359,1.5353,1.536,1.5357,1.536,1.536,1.5361,1.5351,1.5351,1.5351,1.5351,0,1.5203,1.5211,1.5219,1.5231,1.5238,1.5247,1.5257,1.526,1.5278,1.5283,1.5292,1.5298,1.5311,1.532,1.5331,1.5338,1.5348,1.5349,1.5349,1.5346,1.5342,1.5345,1.5362,1.5349,1.5349,1.5349,1.5349,1.5349,1.5185,1.5188,1.5203,1.5212,1.5222,1.5232,1.5236,1.5248,1.5256,1.5268,1.5277,1.5286,1.5298,1.5315,1.5322,1.5329,1.5333,1.5333,1.5333,1.5333,1.5332,1.5341,1.5331,1.5331,1.5331,1.5331,1.5331,0,1.5165,1.5176,1.5185,1.5199,1.5207,1.5218,1.523,1.5236,1.5244,1.5255,1.5264,1.5275,1.5285,1.5299,1.531,1.5313,1.5318,1.5315,1.5315,1.5317,1.5327,1.5326,1.5312,1.5312,1.5312,1.5312,1.5312,1.5312,1.5155,1.5161,1.5172,1.5183,1.5194,1.5204,1.521,1.522,1.523,1.5242,1.5251,1.5261,1.5274,1.5287,1.5297,1.5301,1.5304,1.5301,1.5306,1.5315,1.5316,1.5318,1.5318,1.5301,1.5301,1.5296,1.5296,1.5296]}]]